Stations météo

réclame
Mon MeteoGroup
Santiago de Compostela/Labacolla, Espagne (8042): Température de l'air & dewpoint: 13.07.2018 23:00:00 - 19.07.2018 23:00:00 (CEST)Santiago de Compostela/Labacolla, Espagne (8042): Vitesse du vent: 13.07.2018 23:00:00 - 19.07.2018 23:00:00 (CEST)Santiago de Compostela/Labacolla, Espagne (8042): Direction du vent: 13.07.2018 23:00:00 - 19.07.2018 23:00:00 (CEST)Santiago de Compostela/Labacolla, Espagne (8042): reduced air pressure: 13.07.2018 23:00:00 - 19.07.2018 23:00:00 (CEST)Santiago de Compostela/Labacolla, Espagne (8042): visibility: 13.07.2018 23:00:00 - 19.07.2018 23:00:00 (CEST)
Date & Time tt [°C] td [°C] ff [km/h] ff [knt] dd ppp [hPa] vv [km]
19.07.2018 23:00:00 - - - - - - -
19.07.2018 22:00:00 17,5 14,5 11 6 N 1019,6 30
19.07.2018 21:00:00 18,0 14,7 15 8 N 1019,4 30
19.07.2018 20:00:00 19,1 15,3 18 10 N 1018,8 30
19.07.2018 19:00:00 20,5 15,6 11 6 N 1018,2 21
19.07.2018 18:00:00 20,7 15,4 5 3 NE 1018,2 30
19.07.2018 17:00:00 21,9 15,4 9 5 NNE 1018,0 30
19.07.2018 16:00:00 20,7 15,5 9 5 N 1018,2 30
19.07.2018 15:00:00 19,4 14,7 15 8 N 1018,4 30
19.07.2018 14:00:00 18,5 14,9 13 7 N 1018,3 30
19.07.2018 13:00:00 17,9 15,2 13 7 N 1018,3 30
19.07.2018 12:00:00 18,5 16,1 9 5 N 1017,8 30
19.07.2018 11:00:00 18,7 16,1 11 6 N 1017,3 30
19.07.2018 10:00:00 17,8 16,0 9 5 N 1017,3 20
19.07.2018 09:00:00 17,4 16,1 11 6 N 1016,9 12
19.07.2018 08:00:00 17,6 16,5 9 5 N 1016,5 8
19.07.2018 07:00:00 17,8 16,7 5 3 N 1016,1 10
19.07.2018 06:00:00 17,9 16,9 8 4 N 1016,1 8
19.07.2018 05:00:00 18,1 16,6 8 4 NW 1016,0 9
19.07.2018 04:00:00 18,1 16,7 5 3 NNW 1016,0 8
19.07.2018 03:00:00 17,9 16,4 5 3 WNW 1016,3 9
19.07.2018 02:00:00 18,1 16,4 4 2 NW 1016,6 12
19.07.2018 01:00:00 18,5 16,3 0 0 N 1016,6 13
19.07.2018 00:00:00 18,7 16,1 8 4 W 1016,7 16
18.07.2018 23:00:00 19,2 16,1 8 4 WSW 1016,5 18
18.07.2018 22:00:00 19,7 16,7 8 4 W 1016,0 16
18.07.2018 21:00:00 20,7 16,8 5 3 W 1015,7 22
18.07.2018 20:00:00 21,4 17,2 11 6 WSW 1015,3 18
18.07.2018 19:00:00 22,2 17,8 11 6 W 1015,0 20
18.07.2018 18:00:00 24,1 18,3 15 8 WSW 1014,4 26
18.07.2018 17:00:00 25,6 15,8 9 5 W 1014,0 20
18.07.2018 16:00:00 24,9 17,5 9 5 WNW 1014,1 30
18.07.2018 15:00:00 24,2 16,9 4 2 S 1014,2 30
18.07.2018 14:00:00 23,1 17,8 4 2 NNE 1014,4 20
18.07.2018 13:00:00 20,5 16,1 2 1 E 1015,0 29
18.07.2018 12:00:00 19,7 16,0 0 0 N 1014,9 21
18.07.2018 11:00:00 19,0 16,2 4 2 NE 1014,9 18
18.07.2018 10:00:00 18,1 16,3 4 2 NE 1014,6 13
18.07.2018 09:00:00 16,7 15,7 5 3 N 1014,7 10
18.07.2018 08:00:00 15,8 14,8 5 3 N 1014,6 15
18.07.2018 07:00:00 15,9 15,1 5 3 NW 1014,6 12
18.07.2018 06:00:00 15,8 14,8 5 3 N 1014,6 13
18.07.2018 05:00:00 15,7 14,7 9 5 N 1014,9 20
18.07.2018 04:00:00 15,0 14,4 9 5 N 1015,3 17
18.07.2018 03:00:00 14,3 13,7 5 3 NW 1015,9 16
18.07.2018 02:00:00 14,2 13,4 2 1 N 1016,1 30
18.07.2018 01:00:00 14,5 13,5 13 7 NNW 1016,6 15
18.07.2018 00:00:00 15,7 14,1 9 5 N 1016,7 22
17.07.2018 23:00:00 16,2 13,9 15 8 N 1016,8 30
17.07.2018 22:00:00 17,3 14,4 13 7 N 1016,4 30
17.07.2018 21:00:00 19,1 14,8 16 9 N 1016,2 30
17.07.2018 20:00:00 20,2 15,1 16 9 N 1016,3 30
17.07.2018 19:00:00 21,5 15,8 16 9 N 1016,3 25
17.07.2018 18:00:00 22,3 16,1 15 8 N 1016,5 20
17.07.2018 17:00:00 22,7 16,1 13 7 N 1017,0 30
17.07.2018 16:00:00 22,7 16,1 11 6 N 1017,4 30
17.07.2018 15:00:00 21,5 14,9 8 4 NNE 1018,1 30
17.07.2018 14:00:00 19,9 15,2 11 6 N 1019,0 30
17.07.2018 13:00:00 18,7 14,2 8 4 N 1019,6 30
17.07.2018 12:00:00 18,3 14,3 9 5 N 1019,8 30
17.07.2018 11:00:00 17,2 14,2 5 3 NE 1020,2 30
17.07.2018 10:00:00 16,2 14,2 4 2 NNE 1020,5 27
17.07.2018 09:00:00 15,7 13,7 4 2 N 1020,5 20
17.07.2018 08:00:00 15,3 13,1 5 3 N 1020,6 25
17.07.2018 07:00:00 15,0 13,2 4 2 NNE 1020,7 18
17.07.2018 06:00:00 15,1 13,8 8 4 N 1020,9 19
17.07.2018 05:00:00 15,3 14,3 9 5 N 1021,0 7
17.07.2018 04:00:00 15,7 14,6 4 2 N 1021,2 12
17.07.2018 03:00:00 15,8 14,5 5 3 N 1021,6 16
17.07.2018 02:00:00 15,9 14,4 8 4 N 1022,0 11
17.07.2018 01:00:00 15,9 14,6 4 2 N 1022,2 8
17.07.2018 00:00:00 16,0 14,7 8 4 N 1022,6 14
16.07.2018 23:00:00 15,8 14,5 8 4 N 1022,5 20
16.07.2018 22:00:00 17,1 15,3 13 7 N 1022,0 30
16.07.2018 21:00:00 18,3 15,4 11 6 N 1021,8 30
16.07.2018 20:00:00 19,0 15,8 5 3 NNE 1021,5 40
16.07.2018 19:00:00 19,3 15,8 5 3 NNE 1021,2 30
16.07.2018 18:00:00 21,1 14,3 8 4 W 1020,9 30
16.07.2018 17:00:00 21,7 15,5 5 3 N 1021,1 40
16.07.2018 16:00:00 22,0 14,2 5 3 W 1021,2 30
16.07.2018 15:00:00 20,6 14,1 9 5 NNW 1021,7 40
16.07.2018 14:00:00 20,3 13,4 9 5 WNW 1021,9 30
16.07.2018 13:00:00 19,8 13,4 5 3 SW 1022,0 27
16.07.2018 12:00:00 17,9 13,2 5 3 WSW 1022,2 25
16.07.2018 11:00:00 16,8 13,7 4 2 WSW 1022,1 25
16.07.2018 10:00:00 16,5 14,8 5 3 S 1022,2 9
16.07.2018 09:00:00 15,6 14,2 4 2 WNW 1021,9 16
16.07.2018 08:00:00 14,2 13,9 2 1 W 1022,1 0,9
16.07.2018 07:00:00 13,7 13,2 5 3 WNW 1021,9 2,1
16.07.2018 06:00:00 14,3 13,8 0 0 N 1021,2 3,2
16.07.2018 05:00:00 14,7 14,2 2 1 WNW 1021,0 4,0
16.07.2018 04:00:00 15,0 14,4 0 0 N 1021,1 2,6
16.07.2018 03:00:00 15,3 14,7 5 3 N 1021,4 3,4
16.07.2018 02:00:00 14,9 14,3 4 2 WNW 1021,5 5
16.07.2018 01:00:00 15,7 14,7 8 4 NNW 1021,0 7
16.07.2018 00:00:00 16,1 15,1 0 0 N 1020,8 7
15.07.2018 23:00:00 16,3 15,3 0 0 N 1020,6 10
15.07.2018 22:00:00 16,7 15,7 8 4 N 1020,1 9
15.07.2018 21:00:00 17,4 15,7 13 7 NNW 1019,4 -
15.07.2018 20:00:00 18,5 15,6 8 4 WNW 1018,8 30
15.07.2018 19:00:00 18,8 14,9 8 4 W 1018,9 18
15.07.2018 18:00:00 19,2 14,3 13 7 WNW 1018,6 30
15.07.2018 17:00:00 19,9 14,9 13 7 WNW 1018,4 25
15.07.2018 16:00:00 20,3 15,3 13 7 WSW 1018,3 20
15.07.2018 15:00:00 20,1 15,5 9 5 WSW 1018,4 27
15.07.2018 14:00:00 19,2 15,7 8 4 WSW 1018,4 30
15.07.2018 13:00:00 18,9 14,9 8 4 WSW 1018,5 21
15.07.2018 12:00:00 17,9 15,4 5 3 SW 1018,4 15
15.07.2018 11:00:00 17,1 15,4 9 5 S 1018,5 10
15.07.2018 10:00:00 17,1 15,6 4 2 SSW 1018,1 -
15.07.2018 09:00:00 16,8 15,3 4 2 SSW 1017,9 1,0
15.07.2018 08:00:00 15,8 14,9 4 2 ESE 1017,9 1,0
15.07.2018 07:00:00 16,1 15,5 4 2 W 1017,5 6
15.07.2018 06:00:00 15,7 15,1 4 2 E 1017,6 2,4
15.07.2018 05:00:00 16,0 15,2 4 2 W 1017,5 7
15.07.2018 04:00:00 16,3 15,5 4 2 S 1017,8 6
15.07.2018 03:00:00 16,6 15,7 0 0 N 1018,1 4,8
15.07.2018 02:00:00 17,5 16,0 0 0 N 1018,5 8
15.07.2018 01:00:00 18,2 16,2 8 4 W 1018,3 12
15.07.2018 00:00:00 18,2 16,2 11 6 SW 1018,3 12
14.07.2018 23:00:00 18,6 16,4 11 6 SW 1017,9 10
14.07.2018 22:00:00 19,4 17,2 4 2 SE 1017,6 13
14.07.2018 21:00:00 20,2 17,0 4 2 WSW 1017,5 15
14.07.2018 20:00:00 20,2 16,7 9 5 W 1017,6 15
14.07.2018 19:00:00 20,6 17,0 9 5 W 1017,3 19
14.07.2018 18:00:00 21,7 17,8 13 7 WNW 1017,2 17
14.07.2018 17:00:00 24,3 18,5 18 10 WSW 1015,9 9
14.07.2018 16:00:00 25,2 19,9 16 9 WSW 1015,4 17
14.07.2018 15:00:00 24,9 19,5 11 6 W 1015,9 15
14.07.2018 14:00:00 25,2 19,1 4 2 S 1016,0 15
14.07.2018 13:00:00 23,0 18,6 8 4 NW 1016,3 23
14.07.2018 12:00:00 21,0 18,0 4 2 N 1016,7 12
14.07.2018 11:00:00 19,5 17,1 4 2 ESE 1017,1 6
14.07.2018 10:00:00 18,7 17,7 8 4 SE 1017,3 4,7
14.07.2018 09:00:00 18,1 17,5 4 2 SE 1017,3 4,0
14.07.2018 08:00:00 17,6 17,1 4 2 SE 1017,2 2,5
14.07.2018 07:00:00 17,6 17,0 2 1 SE 1017,2 3,4
14.07.2018 06:00:00 17,5 16,9 0 0 N 1017,1 4,2
14.07.2018 05:00:00 17,3 16,8 0 0 N 1017,0 5
14.07.2018 04:00:00 17,4 16,6 2 1 NE 1017,1 4,2
14.07.2018 03:00:00 17,4 16,4 8 4 W 1017,3 7
14.07.2018 02:00:00 17,9 16,4 4 2 WSW 1017,4 8
14.07.2018 01:00:00 17,7 16,9 4 2 ESE 1017,7 3,8
14.07.2018 00:00:00 18,3 17,0 2 1 W 1017,2 8
13.07.2018 23:00:00 17,9 16,9 0 0 N 1017,1 18

tt = Température de l'air
td = dewpoint
ff = Vitesse du vent
dd = Direction du vent
ppp = reduced air pressure
vv = visibility

stations d'obs. à proximité